STARLINK-33985, 63943

Orbit data source: Space-Track

STARLINK-33985, 63943 is a payload satellite owned by SpaceX/Seattle (US) in LEO that was launched on Tue, 13 May 2025 UTC via an FALCON 9 launch vehicle from the Air Force Western Test Range (AFWTR). Payload-class satellites include a variety of spacecraft equipped with specific instruments for various scientific and technological missions. These include communications satellites like Starlink; space stations such as the ISS; scientific satellites like the Hubble; Earth observation satellites from companies like Planet Labs, Umbra, and HawkEye 360; GPS; miniature CubeSats for education and research; and military/defense satellites.

Loading next visibility...
Identifier
63943, 2025-098T
Orbit
LEO
Country
Flag of USUS
Related business
Manufacturer
SpaceX/Seattle
Mission
Operational Commercial Communications
Bus & Motor
STARLINK V2MO, Unknown motor
Mass
575 kg wet, ~530 kg dry
Launch date (UTC)
2025-05-13 (7 months ago)
Launch vehicle
FALCON 9
Launch site
Air Force Western Test Range (AFWTR)
Object type
Payload
Rocket body
Debris
Shape & HBR
Box + 2 Pan, 17.7 m
Radar Cross Section
36.964 m², Large (>1 m²)

Expand to show TLE details & history
Last TLE update: 9 hours ago

TLE from 9 hours ago
0 STARLINK-33985
1 63943U 25098T   25349.82564177  .00002438  00000-0  21203-3 0  9990
2 63943  70.0003 125.7648 0003144 272.7424  87.3375 14.98338002 33995
Epoch: 2025-12-15T19:48Z
TLE epoch observation values (Epoch: 2025-12-15T19:48:55.448Z)
Latitude
-0.00007°
Longitude
103.8151°
Altitude
574.354 km
Speed
7.574 km/s
True Right ascension
08h 23m 03s
True Declination
0° 00' 00"
Sunlit
Object was in full shadow at epoch
Visualization orbit readout
Latitude
Unknown
Longitude
Unknown
Altitude
Unknown
Speed
Unknown
Apparent Right ascension
Unknown
Apparent Declination
Unknown
Sunlit
N/A
Visualization observer readout
Local Sidereal Time
03:08:08
Azimuth
Unknown
Elevation
Unknown
Doppler factor
Unknown
Orbital elements
Apogee altitude
572.164 km
Perigee altitude
567.795 km
Semi-major axis
6,948.116 km
Eccentricity
0.00031
Inclination
70.0003°
RAAN
125.7648°
Arg. of periapsis
272.7424°
True anomaly
87.37349°
Mean anomaly
87.3375°
Eccentric anomaly
87.35549°
Mean motion
3.74751 °/min
Orbital period
96.06 mins
BSTAR
0.00021203
Loading maneuver chart data...
Computing Atmospheric mass density...
Loading historical data...
Loading historical data...
Loading historical data...
Loading historical data...
Loading historical data...
Loading historical data...
Loading historical data...

Documentation

Showing up to 5 results
|